Regional Weather Roundup
Issued by NWS

Home | Current Version | Previous Version | Graphics & Text | Print | Product List | Glossary On
Versions: 1 2 3 4 5 6 7 8 9 10 11 12 13 14 15 16 17 18 19 20 21 22 23 24 25 26 27 28 29 30 31 32 33 34 35 36 37 38 39 40 41 42 43 44 45 46 47 48 49 50
000
ASUS43 KMKX 021800
RWRWI

WISCONSIN REGIONAL WEATHER ROUNDUP
NATIONAL WEATHER SERVICE MILWAUKEE/SULLIVAN WI
100 PM CDT TUE SEP 02 2014

NOTE: "FAIR" INDICATES FEW OR NO CLOUDS BELOW 12,000 FEET WITH NO
SIGNIFICANT WEATHER AND/OR OBSTRUCTIONS TO VISIBILITY.

WIZ001-002-006>008-014>016-023>028-021900-
NORTHWEST WISCONSIN

CITY           SKY/WX    TMP DP  RH WIND       PRES   REMARKS
SUPERIOR ARPT  SUNNY     74  56  52 SW9G17    29.82S
ASHLAND        MOSUNNY   74  52  46 MISG      29.84S
6HR MIN TEMP:  55; 6HR MAX TEMP:  74;

HAYWARD        SUNNY     71  52  50 SW8       29.87S
6HR MIN TEMP:  50; 6HR MAX TEMP:  72;

SIREN          SUNNY     72  53  50 W7        29.88S
RICE LAKE      SUNNY     72  53  52 W7        29.90S
6HR MIN TEMP:  55; 6HR MAX TEMP:  72;

LADYSMITH      SUNNY     72  53  52 W3        29.90S
EAU CLAIRE     NOT AVBL
MENOMONIE      PTCLDY    76  56  50 SW7       29.89S
NEW RICHMOND   SUNNY     73  51  46 W6        29.90S
OSCEOLA        MOSUNNY   73  56  55 W5        29.92S
$$

WIZ003>005-009-010-017-018-021900-
NORTH CENTRAL WISCONSIN

CITY           SKY/WX    TMP DP  RH WIND       PRES   REMARKS
WOODRUFF       SUNNY     72  55  55 W8        29.87F
RHINELANDER    SUNNY     71  51  49 W10       29.88S
6HR MIN TEMP:  53; 6HR MAX TEMP:  71;

EAGLE RIVER    SUNNY     70  51  50 NW10      29.86S
LAND O LAKES   SUNNY     70  51  50 NW8       29.87S
PHILLIPS       MOSUNNY   70  55  57 NW6       29.87S
TOMAHAWK       SUNNY     70  51  49 W8        29.88F
MEDFORD        SUNNY     71  56  59 W9        29.89R
MERRILL        SUNNY     71  56  60 NW8       29.87S
$$

WIZ029-030-035-036-043>047-021900-
CENTRAL WISCONSIN

CITY           SKY/WX    TMP DP  RH WIND       PRES   REMARKS
WAUSAU         MOSUNNY   73  56  54 W9G16     29.87S
6HR MIN TEMP:  58; 6HR MAX TEMP:  73;

MOSINEE        NOT AVBL
MARSHFIELD     PTSUNNY   74  60  61 W12       29.89S
6HR MIN TEMP:  56; 6HR MAX TEMP:  74; 6HR PCP:  0.01;

STEVENS POINT  MOSUNNY   70  57  63 W8        29.89S
WAUPACA        SUNNY     75  60  57 W5        29.88S
WAUTOMA        NOT AVBL
WISC RAPIDS    MOSUNNY   75  57  53 W7        29.91S
6HR MIN TEMP:  54; 6HR MAX TEMP:  75;

CAMP DOUGLAS   NOT AVBL
$$

WIZ011>013-019>022-031-037>040-048>050-021900-
NORTHEAST WISCONSIN

CITY           SKY/WX    TMP DP  RH WIND       PRES   REMARKS
ANTIGO         SUNNY     69  58  67 W7        29.88S
STURGEON BAY   CLOUDY    64  59  82 NW3       29.87S
6HR MIN TEMP:  59; 6HR MAX TEMP:  68;

GREEN BAY      PTSUNNY   70  60  70 SW8       29.87S
6HR MIN TEMP:  55; 6HR MAX TEMP:  71; 6HR PCP: TRACE;

MANITOWOC      NOT AVBL
APPLETON       PTSUNNY   72  61  68 SW7       29.89S
CLINTONVILLE   PTSUNNY   72  61  68 W7        29.87F
OSHKOSH        MOSUNNY   75  61  61 W9        29.88F
6HR MIN TEMP:  61; 6HR MAX TEMP:  75;

$$

WIZ032>034-041-042-053>061-021900-
SOUTHWEST WISCONSIN

CITY           SKY/WX    TMP DP  RH WIND       PRES   REMARKS
LA CROSSE      SUNNY     77  57  50 W8        29.90S
6HR MIN TEMP:  62; 6HR MAX TEMP:  77;

SPARTA         SUNNY     74  53  48 W8G16     29.91S
VIROQUA        FAIR      74  57  56 W6        29.93S
BOSCOBEL       SUNNY     77  56  48 W6        29.92S
6HR MIN TEMP:  59; 6HR MAX TEMP:  77; 6HR PCP:  0.02;

PRAIRIE DU CHI SUNNY     75  57  53 W6        29.92R
PLATTEVILLE    FAIR      73  63  71 SW7       29.92F
$$

WIZ056-057-062-063-064-067-068-021900-
SOUTH CENTRAL WISCONSIN

CITY           SKY/WX    TMP DP  RH WIND       PRES   REMARKS
BARABOO/DELLS  PTSUNNY   75  52  43 W9        29.91S
LONE ROCK      NOT AVBL
WATERTOWN      MOSUNNY   75  60  59 W8        29.91R
MADISON        PTSUNNY   74  60  61 VRB5      29.91S
6HR MIN TEMP:  58; 6HR MAX TEMP:  74;

MIDDLETON      MOCLDY    74  60  60 NW7       29.92S
MONROE         CLOUDY    73  57  56 SW12      29.92S
JANESVILLE     MOSUNNY   73  55  53 SW7       29.91S
$$

WIZ051-052-058>065-066-070>072-021900-
SOUTHEAST WISCONSIN

CITY           SKY/WX    TMP DP  RH WIND       PRES   REMARKS
MILWAUKEE      PTSUNNY   77  55  46 W12       29.90R
6HR MIN TEMP:  62; 6HR MAX TEMP:  78;

WAUKESHA       PTSUNNY   73  59  60 W10       29.92R
MILWAUKEE/TIMM MOSUNNY   75  55  50 SW6       29.90S
RACINE         MOSUNNY   78  58  49 VRB5      29.91S
6HR MIN TEMP:  64; 6HR MAX TEMP:  79;

BURLINGTON     MOSUNNY   74  57  54 W6        29.90F
KENOSHA        MOSUNNY   78  60  53 VRB6      29.90S
6HR MIN TEMP:  61; 6HR MAX TEMP:  79;

FOND DU LAC    MOSUNNY   75  59  57 W9        29.89F
6HR MIN TEMP:  60; 6HR MAX TEMP:  75;

SHEBOYGAN      PTSUNNY   74  61  63 W12       29.89S
6HR MIN TEMP:  56; 6HR MAX TEMP:  74;

WEST BEND      MOSUNNY   72  59  64 W8        29.90S
JUNEAU         CLOUDY    71  60  66 W5        29.92S
$$

LSZ147-162-021900-
LAKE SUPERIOR

STATION/POSITION TIME  TEMP    WIND        PRES    WAVE
                       AIR SEA DIR/SP/G            HT/PER
                 (UTC) (F)     (DEG/KT/KT) (MB)    (FT/S)
W MID LAKE BUOY  1650   60 57  230/ 12/ 14 1009.0R   1/ 4
DEVILS ISLAND    1700   64     230/ 12/ 13 1009.5F
PORT WING        1700   67     280/  7/  8 1010.2S
SAXON HARBOR     1740   73     250/  3/  8 1010.2F
$$

LMZ867-665-643>646-021900-
LAKE MICHIGAN

STATION/POSITION TIME  TEMP    WIND        PRES    WAVE
                       AIR SEA DIR/SP/G            HT/PER
                 (UTC) (F)     (DEG/KT/KT) (MB)    (FT/S)
N MID LAKE BUOY  1650   65 65  220/ 10/ 12 1010.4F   1/ 5
NORTHPORT PIER   1700   66     300/  3/  5 1010.2F
KEWAUNEE LAKESHO 1700   70     290/  5/  8 1010.9R
SHEBOYGAN LAKESH 1700   72 50  240/ 10/ 11 1012.0R
ATWATER BUOY     1700   72     330/  4/  8 1013.4R
MILWAUKEE LAKESH 1700   75     280/  9/ 12   N/A
S MID LAKE BUOY  1650   71 72  200/  2/  4 1012.4F   1
KENOSHA   LAKESH 1700   73     140/  8/  9 1011.9
$$

TC  - TEMPERATURE IN CELSIUS
VSB - VISIBILITY IN STATUTE MILES
WCI - WIND CHILL INDEX
HX  - HEAT INDEX



USA.gov is the U.S. government's official web portal to all federal, state and local government web resources and services.